KK4URH Weather Reports


time (UTC)temp
F
wind
direction
speed
knots
gust
knots
rain 1hr
in
rain 24hr
in
rain mn
in
humidity
%
barometer
mb
20211017160019 61 30 2.6 10.4 0.00 0.04 0.00 38 1017.6
20211017154509 61 79 2.6 7.8 0.00 0.04 0.00 40 1017.5
20211017153006 61 326 5.2 9.6 0.00 0.04 0.00 38 1017.5
20211017151506 60 281 4.3 9.6 0.00 0.04 0.00 38 1017.6
20211017150005 60 58 5.2 12.2 0.00 0.04 0.00 39 1017.8
20211017144503 60 290 2.6 9.6 0.00 0.04 0.00 44 1017.7
20211017141632 58 302 1.7 10.4 0.00 0.04 0.00 44 1017.6
20211017140122 58 329 2.6 7.8 0.00 0.04 0.00 47 1017.7
20211017134754 57 325 2.6 7.0 0.00 0.04 0.00 49 1017.6
20211017133103 56 279 1.7 7.8 0.00 0.04 0.00 51 1017.5
20211017131618 54 281 1.7 7.0 0.00 0.04 0.00 54 1017.4
20211017130109 53 300 1.7 8.7 0.00 0.04 0.00 56 1017.3
20211017124637 52 321 1.7 5.2 0.00 0.04 0.00 57 1017.0
20211017123107 51 316 2.6 10.4 0.00 0.04 0.00 58 1016.8
20211017121708 50 301 1.7 5.2 0.00 0.04 0.00 59 1016.7
20211017120048 49 320 1.7 3.5 0.00 0.04 0.00 61 1016.5
20211017114625 49 308 0.9 2.6 0.00 0.04 0.00 61 1016.4
20211017113127 49 90 0.0 1.7 0.00 0.04 0.00 61 1016.1
20211017111612 49 306 1.7 2.6 0.00 0.04 0.00 61 1016.0
20211017110115 50 317 0.0 3.5 0.00 0.04 0.00 60 1015.9
20211017104550 50 292 0.0 2.6 0.00 0.04 0.00 60 1015.9
20211017103053 50 284 0.9 3.5 0.00 0.04 0.00 60 1015.7
20211017101532 50 238 0.0 3.5 0.00 0.04 0.00 59 1015.5
20211017100151 50 297 0.0 2.6 0.00 0.04 0.00 59 1015.5
20211017094549 51 308 1.7 3.5 0.00 0.04 0.00 59 1015.5
20211017093030 51 300 0.0 6.1 0.00 0.04 0.00 58 1015.4
20211017091537 51 269 1.7 4.3 0.00 0.04 0.00 58 1015.3
20211017090029 52 285 1.7 5.2 0.00 0.04 0.00 58 1015.3
20211017084537 52 313 0.0 4.3 0.00 0.04 0.00 57 1015.2
20211017083044 52 298 0.9 7.0 0.00 0.04 0.00 57 1015.1
20211017081531 53 325 1.7 6.1 0.00 0.04 0.00 57 1015.1
20211017080107 53 306 1.7 7.0 0.00 0.04 0.00 57 1015.1
20211017074519 53 323 0.0 5.2 0.00 0.04 0.00 57 1015.1
20211017073019 53 308 0.9 5.2 0.00 0.04 0.00 57 1015.0
20211017071523 54 329 0.9 3.5 0.00 0.04 0.00 57 1015.1
20211017070038 54 319 0.9 7.8 0.00 0.04 0.00 56 1015.1
20211017064532 55 296 0.9 7.8 0.00 0.04 0.00 56 1015.1
20211017063010 55 316 1.7 11.3 0.00 0.04 0.00 56 1015.2
20211017061545 55 319 1.7 7.0 0.00 0.04 0.00 56 1015.1
20211017060007 55 323 0.9 5.2 0.00 0.04 0.00 57 1014.9
20211017054517 55 301 0.9 6.1 0.00 0.04 0.00 57 1014.8
20211017053004 55 308 0.0 3.5 0.00 0.04 0.00 57 1014.7
20211017051503 55 311 1.7 5.2 0.00 0.04 0.00 57 1014.5
20211017050130 56 345 1.7 6.1 0.00 0.04 0.00 57 1014.4
20211017044635 56 293 0.9 3.5 0.00 0.04 0.00 56 1014.4
20211017043140 57 313 1.7 4.3 0.00 0.04 0.00 55 1014.4
20211017041711 57 302 0.9 5.2 0.00 0.04 0.00 55 1014.4
20211017040208 57 313 0.9 4.3 0.00 0.04 0.00 54 1014.4
20211017034622 58 307 1.7 3.5 0.00 0.04 0.04 53 1014.4
20211017033141 58 299 1.7 5.2 0.00 0.04 0.04 52 1014.3
20211017031620 59 309 1.7 6.1 0.00 0.04 0.04 51 1014.1
20211017030109 59 319 2.6 7.0 0.00 0.04 0.04 51 1013.7
20211017024601 60 143 0.0 7.0 0.00 0.04 0.04 50 1013.6
20211017023119 60 290 1.7 7.0 0.00 0.04 0.04 50 1013.5
20211017021616 61 312 0.0 3.5 0.00 0.04 0.04 49 1013.3
20211017020049 61 306 2.6 5.2 0.00 0.04 0.04 47 1012.9
20211017014713 62 9 2.6 9.6 0.00 0.04 0.04 46 1012.7
20211017013051 63 70 1.7 8.7 0.00 0.04 0.04 46 1012.5
20211017011530 63 288 2.6 8.7 0.00 0.04 0.04 45 1012.4
20211017010035 64 313 2.6 7.0 0.00 0.04 0.04 44 1012.0
20211017004537 64 306 4.3 8.7 0.00 0.04 0.04 45 1011.8
20211017003028 65 280 2.6 12.2 0.00 0.04 0.04 46 1011.5
20211017001527 65 315 4.3 12.2 0.00 0.04 0.04 46 1011.3
20211017000018 66 114 0.9 11.3 0.00 0.04 0.04 47 1011.1
20211016234525 66 80 3.5 9.6 0.00 0.04 0.04 55 1010.8
20211016233015 66 324 0.9 5.2 0.00 0.04 0.04 56 1010.6
20211016231513 67 333 1.7 8.7 0.00 0.04 0.04 56 1010.0
20211016230016 67 327 0.9 9.6 0.00 0.04 0.04 56 1009.6
20211016224520 67 311 1.7 7.8 0.00 0.04 0.04 56 1009.4
20211016223012 67 265 3.5 13.0 0.00 0.04 0.04 58 1009.0
20211016221509 68 301 1.7 8.7 0.00 0.04 0.04 59 1008.4
20211016220007 69 317 2.6 13.9 0.00 0.04 0.04 58 1008.4
20211016214507 71 340 0.9 4.3 0.00 0.04 0.04 64 1007.8
20211016213008 71 350 1.7 7.8 0.00 0.04 0.04 64 1007.4
20211016211507 72 334 1.7 7.8 0.04 0.04 0.04 66 1007.3
20211016210006 71 296 0.0 2.6 0.04 0.04 0.04 72 1006.9
20211016204523 70 325 0.0 2.6 0.04 0.04 0.04 72 1006.9
20211016203006 70 327 0.0 4.3 0.04 0.04 0.04 69 1006.6
20211016201507 72 320 2.6 11.3 0.01 0.01 0.01 67 1006.3
20211016200012 77 324 4.3 21.7 0.00 0.00 0.00 58 1006.0
20211016194504 83 257 2.6 9.6 0.00 0.00 0.00 48 1005.0
20211016193000 84 284 2.6 7.8 0.00 0.00 0.00 47 1005.1
20211016191629 84 259 3.5 9.6 0.00 0.00 0.00 46 1005.1
20211016190130 84 229 2.6 7.8 0.00 0.00 0.00 46 1005.2
20211016184622 84 202 4.3 11.3 0.00 0.00 0.00 47 1005.3
20211016183142 83 286 4.3 9.6 0.00 0.00 0.00 45 1005.6
20211016181705 84 209 2.6 9.6 0.00 0.00 0.00 46 1005.6
20211016180159 84 288 6.1 10.4 0.00 0.00 0.00 45 1005.7
20211016174639 83 226 3.5 11.3 0.00 0.00 0.00 48 1005.8
20211016173118 83 278 4.3 13.0 0.00 0.00 0.00 50 1006.2
20211016171625 82 243 5.2 8.7 0.00 0.00 0.00 59 1006.7
20211016170057 81 300 3.5 9.6 0.00 0.00 0.00 60 1006.8
20211016164612 82 249 5.2 11.3 0.00 0.00 0.00 60 1007.2
20211016163039 81 243 3.5 11.3 0.00 0.00 0.00 61 1007.6
20211016161600 80 211 5.2 12.2 0.00 0.00 0.00 61 1007.7